Regional Weather Roundup
Issued by NWS Newport/Morehead, NC

Current Version | Previous Version | Graphics & Text | Print | Product List | Glossary On
Versions: 1 2 3 4 5 6 7 8 9 10 11 12 13 14 15 16 17 18 19 20 21 22 23 24 25 26 27 28 29 30 31 32 33 34 35 36 37 38 39 40 41 42 43 44 45 46 47 48 49 50
000 ASUS42 KMHX 280012 RWRMHX WEATHER ROUNDUP FOR EASTERN NORTH CAROLINA NATIONAL WEATHER SERVICE NEWPORT/MOREHEAD CITY NC 800 PM EDT FRI MAR 27 2015 NOTE: "FAIR" INDICATES FEW OR NO CLOUDS BELOW 12,000 FEET WITH NO SIGNIFICANT WEATHER AND/OR OBSTRUCTIONS TO VISIBILITY NCZ015>017-031-032-045>047-102-103-280100- NORTH COAST CITY SKY/WX TMP DP RH WIND PRES REMARKS EDENTON DRIZZLE 42 40 93 N7 29.77F ELIZABETH CITY CLOUDY 43 39 87 N12 29.77R KITTY HAWK RAIN 40 39 95 N7 29.74R MANTEO RAIN 40 39 94 N14G25 29.76R $$ NCZ045>047-081-094-103-104-280100- CENTRAL COAST CITY SKY/WX TMP DP RH WIND PRES REMARKS FRISCO LGT RAIN 43 40 89 NE12G26 29.70F SWANQUARTER N/A 43 N/A N/A VRB10 29.71S $$ NCZ095-097-098-100-101-280100- SOUTHERN COAST CITY SKY/WX TMP DP RH WIND PRES REMARKS BEAUFORT LGT RAIN 46 44 93 N13 29.73R CEDAR ISLAND N/A 46 N/A N/A N28 29.77R JACKSONVILLE CLOUDY 45 42 89 N16 29.73S PINEY ISLAND LGT RAIN N/A N/A N/A N18G24 29.71S WILMINGTON CLOUDY 47 44 90 N10 29.73R $$ NCZ011>013-027>030-043-044-078>080-089-090>093-098-280100- COASTAL PLAIN CITY SKY/WX TMP DP RH WIND PRES REMARKS AHOSKIE MIX PCPN 40 38 92 CALM 29.80R CLINTON CLOUDY 44 42 91 N8 29.79R ELIZABETHTOWN CLOUDY 45 43 95 N3 29.78R GOLDSBORO CLOUDY 43 43 99 N13G20 29.77S GREENVILLE CLOUDY 43 41 93 N7 29.82S HAVELOCK LGT RAIN 45 41 86 N20G28 29.75S KENANSVILLE CLOUDY 43 42 95 N9 29.78R KINSTON CLOUDY 45 41 87 N12 29.79 NEW BERN CLOUDY 45 41 86 N10 29.76S RICHLANDS CLOUDY 45 39 81 N12G25 29.75S ROCKY MOUNT LGT RAIN 43 39 86 N12 29.80S WASHINGTON CLOUDY 42 40 91 NW5 29.78R WHITEVILLE DRIZZLE 46 44 93 N8 29.76R $$ AMZ130-135-150-152-154-156-158-170-250-252-270-ANZ085-086-088-633-658-670-280100- MARINE OBSERVATIONS STATION/POSITION TIME TEMP WIND PRES WAVE SWELL AIR SEA DIR/SP/G HT/PER HT/PER (UTC) (F) (DEG/KT/KT) (MB) (FT/S) (FT/S) CHESAPEAKE LIGHT 2300 40 10/ 16/ 18 1008.1 64 E VA BEACH 2350 44 53 360/ 23/ 29 1005.0 9/ 8 7/ 8 DUCK 2300 41 41 10/ 17/ 19 1006.0 2 E DUCK 2311 42 N/A 6/ 8 2/11 10 NE DUCK NOT AVBL OREGON INLET 2300 40 53 350/ 16/ 21 1006.2 HATTERAS CG 2300 50/ 13/ 22 N/A CAPE LOOKOUT 0000 47 20/ 19/ 24 1005.5 BEAUFORT LAB 2300 47 58 20/ 8/ 13 1004.9 27 SE WRIGHTSVLE 2300 50 64 30/ 21/ 27 1006.1 5 SE WRIGHTSVLE 2300 50 57 20/ 19/ 23 1005.1 225 S CAPE HAT 2350 70 69 230/ 14/ 17 1006.3 9/ 8 8/ 8 41 SE CHARLESTON 2350 59 69 350/ 19/ 25 1004.5 6/ 8 3/ 8 $$

USA.gov is the U.S. government's official web portal to all federal, state and local government web resources and services.